DECAYED

STARLINK-2397, 47917 (Decayed)

Orbit data source: Space-Track

STARLINK-2397, 47917 was a payload satellite owned by SpaceX/Seattle (US) in LEO that was launched on Sun, 14 Mar 2021 UTC via an FALCON 9 launch vehicle from the Air Force Eastern Test Range (AFETR). Payload-class satellites include a variety of spacecraft equipped with specific instruments for various scientific and technological missions. These include communications satellites like Starlink; space stations such as the ISS; scientific satellites like the Hubble; Earth observation satellites from companies like Planet Labs, Umbra, and HawkEye 360; GPS; miniature CubeSats for education and research; and military/defense satellites.

Not visible in the next 10 days
Identifier
47917, 2021-021BK
Orbit
Decayed
Country
Flag of USUS
Related business
Manufacturer
SpaceX/Seattle
Mission
Decayed Commercial Communications
Bus & Motor
STARLINK, Unknown motor
Mass
260 kg wet, ~248 kg dry
Launch date (UTC)
2021-03-14 (5 years ago)
Launch vehicle
FALCON 9
Launch site
Air Force Eastern Test Range (AFETR)
Object type
Payload
Rocket body
Debris
Shape & HBR
Box + 1 Pan, 10.1 m
Radar Cross Section
13.562 m², Large (>1 m²)

Expand to show TLE details & history
Last TLE update: 1 year ago

TLE from 1 year ago
0 STARLINK-2397
1 47917U 21021BK  25073.43598469  .20991759  12527-4  54830-3 0  9995
2 47917  53.0157  40.1262 0002558 272.3152 180.7226 16.45826679222093
Epoch: 2025-03-14T10:27Z
TLE epoch observation values (Epoch: 2025-03-14T10:27:49.077Z)
Latitude
53.06787°
Longitude
165.92231°
Altitude
158.464 km
Speed
7.817 km/s
True Right ascension
09h 00m 41s
True Declination
52° 53' 14"
Sunlit
Object was in full shadow at epoch
Visualization orbit readout
Latitude
Unknown
Longitude
Unknown
Altitude
Unknown
Speed
Unknown
Apparent Right ascension
Unknown
Apparent Declination
Unknown
Sunlit
N/A
Visualization observer readout
Local Sidereal Time
21:32:03
Azimuth
Unknown
Elevation
Unknown
Doppler factor
Unknown
Orbital elements
Apogee altitude
152.312 km
Perigee altitude
148.972 km
Semi-major axis
6,528.779 km
Eccentricity
0.00026
Inclination
53.0157°
RAAN
40.1262°
Arg. of periapsis
272.3152°
True anomaly
180.72223°
Mean anomaly
180.7226°
Eccentric anomaly
180.72242°
Mean motion
4.11429 °/min
Orbital period
87.5 mins
BSTAR
0.0005483
Loading maneuver chart data...
Computing Atmospheric mass density...

Documentation

Showing up to 5 results
|